Find STARLINK-37476

NORAD ID: 68853 Int'l Des: 2026-094Q Owner: starlink Country: USA Constellation: starlink operational
LEOCIRCULARRETROGRADE

リアルタイム位置

3D地球を読み込み中...

STARLINK-37476について

説明を読み込み中...

次回通過

Passes for default location (London). Set your location on the main map for personalized predictions.

高度履歴

Loading altitude history...

軌道要素

1 68853U 26094Q 26121.83336806 -.01761782 96685-3 -30154-2 0 9996
2 68853 97.2819 135.4417 0001361 64.3470 47.9689 16.02636800 1914
Epoch: May 1, 2026 • Age: 5 hours

現在のステータス

高度 272.5 km
速度 7.75 km/s
衛星直下点 27.45°N, 89.52°E
タイプ internet

Most Searched